UAE110 LMML-LCLK

Flight info

Callsign UAE110
Flight time N/A
Altitude 39000
Route AGARI DCT DEMAG DCT SIT UM978 TOSKA DCT BONEK
Aircraft B77W/H-SDE1E2E3FGHIJ2J3J4J5M1RWXY/LB1D1

Departure

Time 2026-05-06 14:49
Airport Malta International Airport (LMML)

Arrival

Time N/A
Airport Larnaca International Airport (LCLK)
Time Latitude Longitude Altitude Speed Heading
2026-05-06 13:49 35.84799 14.49516 250 ft 0 kts 360°
2026-05-06 14:34 35.84785 14.49516 251 ft 2 kts 359°
2026-05-06 14:35 35.84773 14.49516 251 ft 2 kts 359°
2026-05-06 14:35 35.84757 14.49518 251 ft 2 kts 348°
2026-05-06 14:35 35.84742 14.49522 251 ft 2 kts 340°
2026-05-06 14:35 35.84728 14.49530 251 ft 2 kts 332°
2026-05-06 14:36 35.84713 14.49540 251 ft 2 kts 323°
2026-05-06 14:36 35.84706 14.49547 251 ft 0 kts 320°
2026-05-06 14:39 35.84706 14.49546 251 ft 0 kts 320°
2026-05-06 14:39 35.84718 14.49534 251 ft 4 kts 316°
2026-05-06 14:39 35.84755 14.49490 251 ft 9 kts 315°
2026-05-06 14:39 35.84800 14.49435 252 ft 9 kts 315°
2026-05-06 14:40 35.84852 14.49371 253 ft 11 kts 315°
2026-05-06 14:40 35.84909 14.49303 255 ft 10 kts 315°
2026-05-06 14:40 35.84942 14.49229 256 ft 8 kts 274°
2026-05-06 14:40 35.84916 14.49164 257 ft 8 kts 228°
2026-05-06 14:41 35.84906 14.49110 259 ft 6 kts 281°
2026-05-06 14:41 35.84931 14.49056 261 ft 8 kts 306°
2026-05-06 14:41 35.84979 14.48979 263 ft 13 kts 310°
2026-05-06 14:41 35.85064 14.48870 265 ft 15 kts 314°
2026-05-06 14:42 35.85143 14.48773 266 ft 14 kts 315°
2026-05-06 14:42 35.85211 14.48689 267 ft 13 kts 315°
2026-05-06 14:42 35.85241 14.48653 267 ft 0 kts 313°
2026-05-06 14:45 35.85307 14.48569 267 ft 15 kts 315°
2026-05-06 14:45 35.85396 14.48462 267 ft 17 kts 316°
2026-05-06 14:45 35.85480 14.48360 267 ft 16 kts 315°
2026-05-06 14:45 35.85562 14.48266 267 ft 15 kts 325°
2026-05-06 14:46 35.85634 14.48217 267 ft 8 kts 323°
2026-05-06 14:46 35.85657 14.48154 267 ft 8 kts 278°
2026-05-06 14:46 35.85661 14.48076 267 ft 9 kts 270°
2026-05-06 14:46 35.85661 14.48039 267 ft 0 kts 271°
2026-05-06 14:47 35.85663 14.48018 267 ft 5 kts 279°
2026-05-06 14:47 35.85670 14.47961 268 ft 7 kts 257°
2026-05-06 14:47 35.85643 14.47920 269 ft 5 kts 201°
2026-05-06 14:48 35.85613 14.47924 269 ft 3 kts 149°
2026-05-06 14:48 35.85597 14.47942 269 ft 0 kts 134°
2026-05-06 14:48 35.85589 14.47952 269 ft 9 kts 134°
2026-05-06 14:49 35.85350 14.48250 270 ft 90 kts 134°
2026-05-06 14:49 35.84728 14.49015 327 ft 154 kts 131°
2026-05-06 14:49 35.83927 14.49995 1049 ft 166 kts 132°
2026-05-06 14:49 35.83123 14.51016 2017 ft 174 kts 134°
2026-05-06 14:50 35.82103 14.51779 3008 ft 181 kts 160°
2026-05-06 14:50 35.80865 14.51972 4035 ft 186 kts 182°
2026-05-06 14:50 35.79659 14.51543 5074 ft 189 kts 205°
2026-05-06 14:50 35.78580 14.50618 5954 ft 195 kts 206°
2026-05-06 14:51 35.77306 14.50181 6701 ft 196 kts 181°
2026-05-06 14:51 35.75880 14.50124 7133 ft 215 kts 178°
2026-05-06 14:51 35.74349 14.50442 7561 ft 235 kts 158°
2026-05-06 14:51 35.72904 14.51568 8018 ft 256 kts 135°
2026-05-06 14:52 35.71904 14.53462 8457 ft 279 kts 110°
2026-05-06 14:52 35.71713 14.55860 9117 ft 294 kts 81°
2026-05-06 14:52 35.72522 14.58179 9876 ft 301 kts 53°
2026-05-06 14:52 35.73860 14.60182 10595 ft 311 kts 49°
2026-05-06 14:53 35.75314 14.62240 11093 ft 330 kts 48°
2026-05-06 14:53 35.76874 14.64438 11600 ft 348 kts 48°
2026-05-06 14:53 35.78495 14.66724 12140 ft 366 kts 49°
2026-05-06 14:53 35.80199 14.69129 12691 ft 384 kts 49°
2026-05-06 14:54 35.82002 14.71675 13191 ft 402 kts 48°
2026-05-06 14:54 35.83872 14.74317 13960 ft 413 kts 48°
2026-05-06 14:54 35.85740 14.76960 14899 ft 419 kts 48°
2026-05-06 14:54 35.87665 14.79684 15789 ft 426 kts 48°
2026-05-06 14:55 35.89623 14.82458 16670 ft 433 kts 48°
2026-05-06 14:55 35.91601 14.85263 17534 ft 439 kts 48°
2026-05-06 14:55 35.93621 14.88129 18424 ft 445 kts 48°
2026-05-06 14:55 35.95614 14.91017 19289 ft 450 kts 52°
2026-05-06 14:56 35.97332 14.94269 20126 ft 456 kts 62°
2026-05-06 14:56 35.98599 14.97854 20918 ft 462 kts 71°
2026-05-06 14:56 35.99383 15.01693 21754 ft 466 kts 81°
2026-05-06 14:56 35.99652 15.05673 22532 ft 471 kts 90°
2026-05-06 14:57 35.99480 15.09727 23239 ft 476 kts 94°
2026-05-06 14:57 35.99223 15.13804 23945 ft 482 kts 94°
2026-05-06 14:57 35.98969 15.17916 24620 ft 487 kts 94°
2026-05-06 14:57 35.98721 15.22067 25299 ft 492 kts 94°
2026-05-06 14:58 35.98476 15.26291 26013 ft 496 kts 94°
2026-05-06 14:58 35.98232 15.30558 26768 ft 499 kts 94°
2026-05-06 14:58 35.97991 15.34824 27420 ft 505 kts 94°
2026-05-06 14:58 35.97745 15.39191 28067 ft 510 kts 93°
2026-05-06 14:59 35.97501 15.43540 28696 ft 516 kts 93°
2026-05-06 14:59 35.97252 15.47969 29413 ft 519 kts 93°
2026-05-06 14:59 35.97004 15.52376 30378 ft 516 kts 93°
2026-05-06 14:59 35.96757 15.56739 31413 ft 512 kts 93°
2026-05-06 15:00 35.96510 15.61091 32267 ft 511 kts 93°
2026-05-06 15:00 35.96260 15.65463 32985 ft 512 kts 94°
2026-05-06 15:00 35.96006 15.69823 33604 ft 513 kts 94°
2026-05-06 15:00 35.95752 15.74173 34165 ft 516 kts 94°
2026-05-06 15:01 35.95493 15.78584 34746 ft 516 kts 94°
2026-05-06 15:01 35.95232 15.82993 35365 ft 516 kts 94°
2026-05-06 15:01 35.94969 15.87421 35781 ft 520 kts 93°
2026-05-06 15:01 35.94703 15.91870 36285 ft 521 kts 94°
2026-05-06 15:02 35.94436 15.96307 36829 ft 520 kts 93°
2026-05-06 15:02 35.94168 16.00737 37245 ft 521 kts 94°
2026-05-06 15:02 35.93898 16.05186 37431 ft 526 kts 93°
2026-05-06 15:02 35.93623 16.09679 37796 ft 526 kts 93°
2026-05-06 15:03 35.93348 16.14143 38141 ft 527 kts 93°
2026-05-06 15:03 35.93069 16.18648 38353 ft 530 kts 93°
2026-05-06 15:03 35.92783 16.23220 38576 ft 532 kts 93°
2026-05-06 15:03 35.92502 16.27713 38813 ft 533 kts 93°
2026-05-06 15:04 35.92212 16.32303 39010 ft 534 kts 92°
2026-05-06 15:04 35.91634 16.41372 39023 ft 531 kts 92°
2026-05-06 15:05 35.91050 16.50451 39027 ft 534 kts 93°
2026-05-06 15:05 35.90460 16.59487 39025 ft 531 kts 93°
2026-05-06 15:06 35.89859 16.68597 39009 ft 530 kts 93°
2026-05-06 15:06 35.89258 16.77616 39018 ft 531 kts 93°
2026-05-06 15:07 35.88650 16.86621 39021 ft 531 kts 93°
2026-05-06 15:07 35.88034 16.95654 39019 ft 528 kts 93°
2026-05-06 15:08 35.87406 17.04755 39033 ft 531 kts 93°
2026-05-06 15:08 35.86779 17.13747 39028 ft 527 kts 93°
2026-05-06 15:09 35.86146 17.22723 39038 ft 528 kts 93°
2026-05-06 15:09 35.85508 17.31685 39041 ft 526 kts 93°
2026-05-06 15:10 35.84866 17.40590 39043 ft 525 kts 93°
2026-05-06 15:10 35.84216 17.49521 39040 ft 523 kts 93°
2026-05-06 15:11 35.83559 17.58459 39052 ft 523 kts 93°
2026-05-06 15:11 35.82901 17.67325 39043 ft 523 kts 94°
2026-05-06 15:12 35.82233 17.76230 39044 ft 522 kts 94°
2026-05-06 15:12 35.81565 17.85041 39046 ft 519 kts 93°
2026-05-06 15:13 35.80889 17.93882 39050 ft 520 kts 93°
2026-05-06 15:13 35.80208 18.02698 39046 ft 519 kts 94°
2026-05-06 15:14 35.79522 18.11484 39045 ft 517 kts 93°
2026-05-06 15:14 35.78827 18.20322 39056 ft 518 kts 94°
2026-05-06 15:15 35.78126 18.29139 39062 ft 518 kts 94°
2026-05-06 15:15 35.77425 18.37877 39061 ft 517 kts 94°
2026-05-06 15:16 35.76713 18.46671 39060 ft 518 kts 94°
2026-05-06 15:16 35.75997 18.55434 39069 ft 515 kts 94°
2026-05-06 15:17 35.75279 18.64148 39064 ft 516 kts 94°
2026-05-06 15:17 35.74554 18.72866 39065 ft 514 kts 94°
2026-05-06 15:18 35.73823 18.81571 39061 ft 515 kts 94°
2026-05-06 15:18 35.73083 18.90321 39068 ft 513 kts 94°
2026-05-06 15:19 35.72339 18.99033 39062 ft 513 kts 94°
2026-05-06 15:19 35.71592 19.07698 39068 ft 510 kts 94°
2026-05-06 15:20 35.70843 19.16324 39076 ft 510 kts 94°
2026-05-06 15:20 35.70086 19.24967 39073 ft 510 kts 94°
2026-05-06 15:21 35.69318 19.33665 39080 ft 509 kts 95°
2026-05-06 15:21 35.68552 19.42262 39083 ft 511 kts 95°
2026-05-06 15:22 35.67775 19.50924 39082 ft 509 kts 95°
2026-05-06 15:22 35.66997 19.59515 39087 ft 508 kts 95°
2026-05-06 15:23 35.66214 19.68100 39078 ft 508 kts 95°
2026-05-06 15:23 35.65419 19.76748 39089 ft 508 kts 95°
2026-05-06 15:24 35.64622 19.85340 39080 ft 506 kts 96°
2026-05-06 15:24 35.63822 19.93904 39092 ft 506 kts 96°
2026-05-06 15:25 35.63017 20.02455 39088 ft 507 kts 96°
2026-05-06 15:25 35.62202 20.11044 39082 ft 506 kts 96°
2026-05-06 15:26 35.61383 20.19606 39102 ft 508 kts 96°
2026-05-06 15:26 35.60556 20.28186 39063 ft 504 kts 96°
2026-05-06 15:27 35.59728 20.36719 39149 ft 504 kts 96°
2026-05-06 15:27 35.58890 20.45294 39092 ft 506 kts 96°
2026-05-06 15:28 35.58051 20.53808 39094 ft 506 kts 96°
2026-05-06 15:28 35.57201 20.62376 39097 ft 505 kts 96°
2026-05-06 15:29 35.56346 20.70928 39089 ft 505 kts 96°
2026-05-06 15:29 35.55491 20.79414 39091 ft 505 kts 96°
2026-05-06 15:30 35.54620 20.88003 39094 ft 506 kts 96°
2026-05-06 15:30 35.53748 20.96543 39092 ft 508 kts 96°
2026-05-06 15:31 35.52871 21.05063 39093 ft 506 kts 96°
2026-05-06 15:31 35.51984 21.13622 39095 ft 506 kts 96°
2026-05-06 15:32 35.50997 21.26419 39094 ft 506 kts 93°
2026-05-06 15:32 35.50425 21.34989 39096 ft 505 kts 93°
2026-05-06 15:33 35.49835 21.43577 39097 ft 505 kts 94°
2026-05-06 15:33 35.49239 21.52071 39094 ft 504 kts 94°
2026-05-06 15:34 35.48632 21.60607 39091 ft 503 kts 94°
2026-05-06 15:34 35.48016 21.69170 39080 ft 503 kts 94°
2026-05-06 15:35 35.47398 21.77653 39084 ft 503 kts 94°
2026-05-06 15:35 35.46771 21.86169 39088 ft 503 kts 94°
2026-05-06 15:36 35.46137 21.94692 39082 ft 502 kts 94°
2026-05-06 15:36 35.45493 22.03259 39090 ft 503 kts 94°
2026-05-06 15:37 35.44849 22.11758 39088 ft 501 kts 94°
2026-05-06 15:37 35.44198 22.20257 39097 ft 502 kts 94°
2026-05-06 15:38 35.43543 22.28736 39095 ft 500 kts 94°
2026-05-06 15:38 35.42884 22.37186 39092 ft 500 kts 94°
2026-05-06 15:39 35.42194 22.45952 39104 ft 500 kts 94°
2026-05-06 15:39 35.41469 22.55082 39096 ft 500 kts 94°
2026-05-06 15:40 35.40764 22.63875 39087 ft 499 kts 94°
2026-05-06 15:40 35.40004 22.72913 39106 ft 500 kts 95°
2026-05-06 15:41 35.39265 22.82093 39087 ft 499 kts 94°
2026-05-06 15:41 35.38691 22.89141 39087 ft 498 kts 94°